Weather History for EGMC - October, 2011

Change the Weather History Date:

Tuesday, October 11, 2011

  Actual Average Record
Temperature  
Mean Temperature 64 °F -  
Max Temperature 68 °F 55 °F - ()
Min Temperature 60 °F 44 °F - ()
Degree Days  
Heating Degree Days 1    
Growing Degree Days 14 (Base 50)    
Moisture  
Dew Point 54 °F    
Average Humidity 71    
Maximum Humidity 77    
Minimum Humidity 64    
Precipitation  
Precipitation 0.00 in - - ()
Sea Level Pressure  
Sea Level Pressure 30.04 in    
Wind  
Wind Speed 18 mph ()    
Max Wind Speed 26 mph    
Max Gust Speed 34 mph    
Visibility 6.2 miles    
Events      
T = Trace of Precipitation, MM = Missing Value Source: Averaged Metar Reports

Daily Weather History Graph

Daily Weather History Graph

Search for Another Location

Airport or City:

Trip Planner

Search our weather history database for the weather conditions in past years. The results will help you decide how hot, cold, wet, or windy it might be!

Date:

Astronomy

Oct. 11, 2011 Rise Set
Actual Time 7:13 AM BST 6:13 PM BST
Civil Twilight 6:40 AM BST 6:46 PM BST
Nautical Twilight 6:01 AM BST 7:25 PM BST
Astronomical Twilight 5:22 AM BST 8:04 PM BST
Moon 5:32 PM BST (10/11) 6:40 AM BST (10/11)
Length of Visible Light 12h 06m
Length of Day
10h 59m
Full, 100% of the Moon is Illuminated
Oct 11
Full
Oct 12
Full
Oct 20
Last Quarter
Oct 26
New
Nov 2
First Quarter

Hourly Weather History & Observations

Time (BST) Temp. Dew Point Humidity Pressure Visibility Wind Dir Wind Speed Gust Speed Precip Events Conditions
6:50 AM 60.8 °F 53.6 °F 77% 30.01 in 6.2 mi WSW 17.3 mph 28.8 mph N/A   Scattered Clouds
7:20 AM 60.8 °F 53.6 °F 77% 30.01 in 6.2 mi WSW 17.3 mph 28.8 mph N/A   Scattered Clouds
7:50 AM 60.8 °F 53.6 °F 77% 30.01 in 6.2 mi WSW 23.0 mph - N/A   Scattered Clouds
8:20 AM 62.6 °F 53.6 °F 72% 30.01 in 6.2 mi WSW 26.5 mph - N/A   Partly Cloudy
8:50 AM 62.6 °F 53.6 °F 72% 30.01 in 6.2 mi WSW 20.7 mph - N/A   Partly Cloudy
9:20 AM 62.6 °F 53.6 °F 72% 30.04 in 6.2 mi WSW 20.7 mph - N/A   Partly Cloudy
9:50 AM 62.6 °F 53.6 °F 72% 30.04 in 6.2 mi WSW 23.0 mph - N/A   Partly Cloudy
10:20 AM 62.6 °F 53.6 °F 72% 30.04 in 6.2 mi WSW 20.7 mph 34.5 mph N/A   Partly Cloudy
10:50 AM 64.4 °F 53.6 °F 68% 30.04 in 6.2 mi WSW 26.5 mph - N/A   Partly Cloudy
11:20 AM 66.2 °F 53.6 °F 64% 30.04 in 6.2 mi WSW 26.5 mph - N/A   Partly Cloudy
11:50 AM 66.2 °F 53.6 °F 64% 30.04 in 6.2 mi WSW 23.0 mph - N/A   Partly Cloudy
12:20 PM 66.2 °F 53.6 °F 64% 30.04 in 6.2 mi WSW 25.3 mph - N/A   Partly Cloudy
12:50 PM 68.0 °F 55.4 °F 64% 30.04 in 6.2 mi WSW 24.2 mph - N/A   Partly Cloudy
1:20 PM 68.0 °F 55.4 °F 64% 30.04 in 6.2 mi WSW 23.0 mph - N/A   Partly Cloudy
1:50 PM 66.2 °F 55.4 °F 68% 30.04 in 6.2 mi WSW 19.6 mph - N/A   Scattered Clouds
2:20 PM 68.0 °F 55.4 °F 64% 30.04 in 6.2 mi WSW 20.7 mph 32.2 mph N/A   Scattered Clouds
2:50 PM 66.2 °F 55.4 °F 68% 30.04 in 6.2 mi West 20.7 mph - N/A   Scattered Clouds
3:20 PM 66.2 °F 55.4 °F 68% 30.04 in 6.2 mi WSW 20.7 mph - N/A   Scattered Clouds
3:50 PM 66.2 °F 55.4 °F 68% 30.04 in 6.2 mi WSW 18.4 mph - N/A   Mostly Cloudy
4:20 PM 66.2 °F 55.4 °F 68% 30.04 in 6.2 mi WSW 13.8 mph - N/A   Scattered Clouds
4:50 PM 66.2 °F 55.4 °F 68% 30.04 in 6.2 mi WSW 16.1 mph - N/A   Partly Cloudy
5:20 PM 64.4 °F 55.4 °F 73% 30.04 in 6.2 mi WSW 16.1 mph - N/A   Partly Cloudy
5:50 PM 64.4 °F 53.6 °F 68% 30.04 in 6.2 mi West 16.1 mph - N/A   Partly Cloudy
7:20 PM 64.4 °F 55.4 °F 73% 30.06 in 6.2 mi WSW 12.7 mph - N/A   Scattered Clouds
7:50 PM 62.6 °F 55.4 °F 77% 30.06 in 6.2 mi WSW 13.8 mph - N/A   Scattered Clouds
8:20 PM 62.6 °F 55.4 °F 77% 30.09 in 6.2 mi WSW 10.4 mph - N/A   Scattered Clouds
8:50 PM 62.6 °F 53.6 °F 72% 30.09 in 6.2 mi SW 9.2 mph - N/A   Scattered Clouds
9:20 PM 60.8 °F 53.6 °F 77% 30.09 in 6.2 mi SW 11.5 mph - N/A   Scattered Clouds
9:50 PM 60.8 °F 53.6 °F 77% 30.09 in 6.2 mi WSW 12.7 mph - N/A   Partly Cloudy